Regional Weather Roundup
Issued by NWS

Home | Current Version | Previous Version | Text Only | Print | Product List | Glossary On
Versions: 1 2 3 4 5 6 7 8 9 10 11 12 13 14 15 16 17 18 19 20 21 22 23 24 25 26 27 28 29 30 31 32 33 34 35 36 37 38 39 40 41 42 43 44 45 46 47 48 49 50
000
ASUS42 KFFC 251203
RWRGA
WEATHER ROUNDUP FOR GEORGIA
NATIONAL WEATHER SERVICE PEACHTREE CITY GA
800 AM EDT SAT APR 25 2015

NOTE: "FAIR" INDICATES FEW OR NO CLOUDS BELOW 12,000 FEET WITH NO
SIGNIFICANT WEATHER AND/OR OBSTRUCTIONS TO VISIBILITY.

* = USE WITH CAUTION. THE STATIONS MARKED WITH AN ASTERISK MAY NOT
REPORT WEATHER SUCH AS PRECIPITATION, FOG, OR THUNDER AND ARE NOT
QUALITY CONTROLLED BY NWS.

THE REMARK "TC" DENOTES TEMPERATURE READING IN DEGREES CELSIUS.

GAZ001>058-251300-
NORTH GEORGIA

CITY           SKY/WX    TMP DP  RH WIND       PRES   REMARKS
ATLANTA        TSTM      59  56  89 NE9       29.92R VSB 1
6HR MIN TEMP:  59; 6HR MAX TEMP:  67; 6HR PCP:  0.69;

ATHENS         RAIN      57  55  93 NE3       29.93R FOG
6HR MIN TEMP:  56; 6HR MAX TEMP:  63; 6HR PCP:  0.21;

CHAMBLEE       RAIN      58  57  97 CALM      29.92R FOG
6HR MIN TEMP:  58; 6HR MAX TEMP:  65; 6HR PCP:  0.41;

PEACHTREE CITY HVY RAIN  60  59  96 VRB5      29.91R VSB 1
6HR MIN TEMP:  60; 6HR MAX TEMP:  62; 6HR PCP:  0.30;

ROME           CLOUDY    54  54 100 SE7       29.80F FOG
6HR MIN TEMP:  54; 6HR MAX TEMP:  59; 6HR PCP:  0.72;

WEST ATLANTA   HVY RAIN  59  57  93 E8        29.88F FOG
6HR MIN TEMP:  58; 6HR MAX TEMP:  63; 6HR PCP:  0.73;

GAINESVILLE    HVY RAIN  55  54  96 CALM      29.94R FOG
6HR MIN TEMP:  55; 6HR MAX TEMP:  63; 6HR PCP:  0.45;

CARTERSVILLE   LGT RAIN  57  55  93 E7        29.84F FOG
6HR MIN TEMP:  56; 6HR MAX TEMP:  59; 6HR PCP:  0.65;



CITY           SKY/WX    TMP DP  RH WIND       PRES   REMARKS
DALTON*        LGT RAIN  54  54 100 S6        29.83F
LAWRENCEVILLE* LGT RAIN  57  52  82 S7        29.92  FOG
MARIETTA       RAIN      58  58 100 E9        29.86F FOG
KENNESAW*      LGT RAIN  57  55  94 CALM      29.91F FOG
BLAIRSVILLE*   LGT RAIN  55  48  78 SE3       29.90F
$$

GAZ059>098-102>109-251300-
CENTRAL GEORGIA

CITY           SKY/WX    TMP DP  RH WIND       PRES   REMARKS
AUGUSTA-BUSH   LGT RAIN  57  53  86 SE9       29.89F
6HR MIN TEMP:  56; 6HR MAX TEMP:  61; 6HR PCP:  0.02;

AUGUSTA-DANIEL LGT RAIN  59  53  80 E7        29.90F
6HR MIN TEMP:  59; 6HR MAX TEMP:  63; 6HR PCP:  0.02;

COLUMBUS       TSTM      64  61  88 SW8       29.82R
6HR MIN TEMP:  62; 6HR MAX TEMP:  66; 6HR PCP:  0.01;

MACON          CLOUDY    61  57  87 SE6       29.85F
6HR MIN TEMP:  61; 6HR MAX TEMP:  64; 6HR PCP: TRACE;

ROBINS AFB     CLOUDY    62  58  86 SE8       29.84F


CITY           SKY/WX    TMP DP  RH WIND       PRES   REMARKS
LAGRANGE*      RAIN      64  63  98 SE6       29.85R
SYLVANIA*      CLOUDY    60  57  89 CALM      29.94R
MILLEDGEVILLE* HVY RAIN  61  59  94 CALM      29.89R
$$

GAZ099>101-110>166-251300-
SOUTH GEORGIA

CITY           SKY/WX    TMP DP  RH WIND       PRES   REMARKS
SAVANNAH       CLOUDY    68  60  75 CALM      29.94R
6HR MIN TEMP:  63; 6HR MAX TEMP:  68;

VALDOSTA       CLOUDY    66  63  90 S9        29.89F
6HR MIN TEMP:  61; 6HR MAX TEMP:  66;

ALMA           CLOUDY    63  59  87 SE5       29.91R
6HR MIN TEMP:  60; 6HR MAX TEMP:  63;

ST SIMONS      PTSUNNY   71  66  84 S6        29.92R
6HR MIN TEMP:  67; 6HR MAX TEMP:  71;

FT STEWART     PTSUNNY   63  59  87 CALM      29.92R
ALBANY         CLOUDY    68  61  78 S6        29.88R
HUNTER AFB     PTSUNNY   69  64  84 SE3       29.91R
MOODY AFB      CLOUDY    64  60  86 S6        29.89S
BRUNSWICK      PTSUNNY   72  64  78 S8        29.93S


CITY           SKY/WX    TMP DP  RH WIND       PRES   REMARKS
BAINBRIDGE*    CLOUDY    72  68  88 S7        29.88S
MOULTRIE*      LGT RAIN  64  64 100 S6        29.89F
VIDALIA*       LGT RAIN  63  59  88 SE5       29.89F
WAYCROSS*      CLOUDY    68  65  92 SW3       29.92R
DOUGLAS*       CLOUDY    63  59  88 S7        29.91F
$$



USA.gov is the U.S. government's official web portal to all federal, state and local government web resources and services.